Flag for Switzerland Weather past 2 weeks in Opfikon, Zurich, Switzerland

Now
60 °F

Refreshingly cool.


Feels Like: 60 °F
Forecast: 37 / 68 °F
Wind: 2 mph from North

Location: Zurich Town / Ville.

Current Time: May 27, 2015 at 6:50:27 PM

Latest Report: May 27, 2015 at 6:00 PM


Visibility: N/A

Pressure: 30.16 "Hg

Humidity: 48%

Dew point: 39 °F

Location of OpfikonLocation

Historic Weather in Opfikon — Graph

°F

Opfikon temperature yesterday

Maximum temperature yesterday: 52 °F (at 9:00 AM)
Minimum temperature yesterday: 48 °F (at 10:00 PM)
Average temperature yesterday: 51 °F

Past Weeks' High & Low Weather Summary

 TemperatureHumidityPressure
High77 °F (May 13, 4:00 PM)97% (May 15, 5:00 PM)30.34 "Hg (May 15, 5:00 PM)
Low41 °F (May 21, 1:00 AM)30% (May 12, 9:00 PM)29.71 "Hg (May 18, 7:00 PM)
Average55 °F75%30.06 "Hg
* Reported May 12 9:00 PM — May 27 5:00 PM, Opfikon, Weather by CustomWeather, © 2015

Note: Actual official high and low records may vary slightly from our data, if they occured in-between our weather recording intervals... More about our weather records

Advertising

Opfikon weather history for previous 24 hours

 ConditionsComfort  
Time TempWeatherWind HumidityBarometerVisibility
5:00 PM
Wed, May 27
59 °FRefreshingly cool.2 mph45%30.18 "HgN/A
4:00 PM58 °FRefreshingly cool.1 mph44%30.18 "HgN/A
3:00 PM56 °FRefreshingly cool.3 mph48%30.21 "HgN/A
2:00 PM57 °FOvercast.3 mph48%30.22 "HgN/A
1:00 PM53 °FCool.2 mph50%30.24 "HgN/A
12:00 PM53 °FCool.2 mph59%30.24 "HgN/A
11:00 AM52 °FCool.3 mph66%30.24 "HgN/A
10:00 AM51 °FCool.2 mph63%30.25 "HgN/A
9:00 AM48 °FCool.3 mph75%30.26 "HgN/A
8:00 AM45 °FCool.1 mph90%30.27 "HgN/A
7:00 AM44 °FQuite cool.3 mph92%30.27 "HgN/A
6:00 AM43 °FQuite cool.3 mph95%30.27 "HgN/A
4:00 AM43 °FQuite cool.3 mph94%30.26 "HgN/A
3:00 AM44 °FQuite cool.2 mph94%30.24 "HgN/A
2:00 AM46 °FCool.3 mph87%30.23 "HgN/A
1:00 AM47 °FCool.3 mph88%30.22 "HgN/A
12:00 AM47 °FCool.1 mph95%30.22 "HgN/A
10:00 PM
Tue, May 26
48 °FCool.5 mph89%30.19 "HgN/A
9:00 PM50 °FCool.3 mph94%30.16 "HgN/A
8:00 PM51 °FCool.2 mph91%30.14 "HgN/A
7:00 PM51 °FCool.2 mph93%30.12 "HgN/A
6:00 PM51 °FCool.1 mph93%30.10 "HgN/A
Weather by CustomWeather, © 2015

See weather overviewHow to use our weather pages